This is the latest recevied weather packets stored in our database for station/object KM4KMO-14. If no packets are shown the sender has not sent any weather packets the latest 10 day(s).
| Time | Temp. | Humidity | Pressure | Rain* | Wind** | Luminosity | Snow |
|---|---|---|---|---|---|---|---|
| 1778121730 | 17.22° C | 100% | 1009.2 hPa | 0.51 mm | - | - | - |
| 1778120830 | 17.78° C | 99% | 1009.2 hPa | 0.51 mm | - | - | - |
| 1778119930 | 17.78° C | 99% | 1009.3 hPa | 0 mm | - | - | - |
| 1778119030 | 17.78° C | 99% | 1009.2 hPa | 0 mm | - | - | - |
| 1778117231 | 17.78° C | 99% | 1009.8 hPa | 0 mm | - | - | - |
| 1778116331 | 17.78° C | 99% | 1009.4 hPa | 0 mm | - | - | - |
| 1778115431 | 17.78° C | 99% | 1009.2 hPa | 1.27 mm | - | - | - |
| 1778113631 | 17.78° C | 99% | 1009.2 hPa | 1.52 mm | - | - | - |
| 1778111831 | 17.78° C | 99% | 1010 hPa | 2.79 mm | - | - | - |
| 1778110931 | 17.78° C | 99% | 1009.3 hPa | 4.06 mm | - | - | - |
| 1778110031 | 17.78° C | 99% | 1009.2 hPa | 7.87 mm | - | - | - |
| 1778109131 | 17.78° C | 99% | 1009.3 hPa | 10.41 mm | - | - | - |
| 1778108231 | 17.78° C | 99% | 1008.6 hPa | 12.95 mm | - | - | - |
| 1778107331 | 17.78° C | 99% | 1008.7 hPa | 12.19 mm | - | - | - |
| 1778106431 | 17.78° C | 98% | 1009 hPa | 8.38 mm | - | - | - |
| 1778105531 | 18.33° C | 98% | 1009 hPa | 4.32 mm | - | - | - |
| 1778103732 | 18.33° C | 98% | 1008.4 hPa | 1.78 mm | - | - | - |
| 1778102832 | 18.33° C | 98% | 1007.7 hPa | 1.52 mm | - | - | - |
| 1778101032 | 18.89° C | 98% | 1008.9 hPa | 1.27 mm | - | - | - |
| 1778098332 | 19.44° C | 98% | 1009.3 hPa | 1.78 mm | - | - | - |
| 1778096532 | 20° C | 98% | 1009 hPa | 1.78 mm | - | - | - |
| 1778095632 | 19.44° C | 99% | 1009.4 hPa | 2.79 mm | - | - | - |
| 1778094732 | 19.44° C | 98% | 1009.6 hPa | 4.32 mm | - | - | - |
| 1778093832 | 19.44° C | 98% | 1009.2 hPa | 5.33 mm | - | - | - |
| 1778092032 | 20° C | 96% | 1009.6 hPa | 3.81 mm | - | - | - |
* Rain latest hour (hover to see other rain measurements)
** Current wind speed in m/s (hover to see current wind gust speed)